DW8945 Weather Reports


Display with metric or nautical units.
time (UTC)temp
F
wind
direction
speed
MPH
gust
MPH
rain 1hr
in
rain 24hr
in
rain mn
in
humidity
%
barometer
mb
20260508111846 49 328 1.0 5.0 0.00 0.00 0.00 57 1009.1
20260508111410 48 330 1.0 5.0 0.00 0.00 0.00 59 1009.2
20260508110904 48 330 1.0 5.0 0.00 0.00 0.00 60 1009.2
20260508110355 47 331 1.0 5.0 0.00 0.00 0.00 61 1009.2
20260508105903 47 331 0.0 3.0 0.00 0.00 0.00 65 1009.1
20260508105422 46 331 0.0 2.0 0.00 0.00 0.00 68 1009.0
20260508104901 45 331 0.0 0.0 0.00 0.00 0.00 69 1008.9
20260508104406 44 331 0.0 0.0 0.00 0.00 0.00 70 1008.9
20260508103850 44 331 0.0 0.0 0.00 0.00 0.00 70 1008.8
20260508103348 44 331 0.0 0.0 0.00 0.00 0.00 70 1008.7
20260508102903 43 331 0.0 0.0 0.00 0.00 0.00 69 1008.7
20260508102404 43 331 0.0 0.0 0.00 0.00 0.00 69 1008.6
20260508101903 43 331 0.0 1.0 0.00 0.00 0.00 70 1008.6
20260508101406 43 331 0.0 1.0 0.00 0.00 0.00 70 1008.6
20260508100851 43 331 0.0 0.0 0.00 0.00 0.00 70 1008.5
20260508100343 43 331 0.0 1.0 0.00 0.00 0.00 71 1008.5
20260508095849 43 331 0.0 1.0 0.00 0.00 0.00 71 1008.4
20260508095355 43 331 0.0 0.0 0.00 0.00 0.00 70 1008.4
20260508094857 43 331 0.0 0.0 0.00 0.00 0.00 70 1008.4
20260508094345 43 331 0.0 0.0 0.00 0.00 0.00 70 1008.3
20260508093906 43 331 0.0 0.0 0.00 0.00 0.00 70 1008.3
20260508093406 43 331 0.0 0.0 0.00 0.00 0.00 70 1008.2
20260508092912 43 331 0.0 0.0 0.00 0.00 0.00 70 1008.2
20260508092357 43 331 0.0 0.0 0.00 0.00 0.00 70 1008.3
20260508091900 43 331 0.0 0.0 0.00 0.00 0.00 70 1008.2
20260508091346 43 331 0.0 0.0 0.00 0.00 0.00 69 1008.1
20260508090849 43 331 0.0 0.0 0.00 0.00 0.00 69 1008.1
20260508090401 43 331 0.0 0.0 0.00 0.00 0.00 69 1008.1
20260508085843 43 331 0.0 0.0 0.00 0.00 0.00 68 1008.1
20260508085349 44 331 0.0 2.0 0.00 0.00 0.00 68 1008.1
20260508084850 44 331 1.0 2.0 0.00 0.00 0.00 67 1008.1
20260508084357 43 331 0.0 0.0 0.00 0.00 0.00 66 1008.1
20260508083902 43 331 0.0 1.0 0.00 0.00 0.00 66 1008.1
20260508083422 43 331 0.0 2.0 0.00 0.00 0.00 66 1008.1
20260508082848 43 331 0.0 2.0 0.00 0.00 0.00 66 1008.0
20260508082354 43 331 0.0 2.0 0.00 0.00 0.00 66 1007.9
20260508081853 44 331 0.0 0.0 0.00 0.00 0.00 65 1007.8
20260508081359 44 331 0.0 0.0 0.00 0.00 0.00 65 1007.7
20260508080859 44 331 0.0 0.0 0.00 0.00 0.00 65 1007.8
20260508080421 44 331 0.0 0.0 0.00 0.00 0.00 65 1007.7
20260508075849 44 331 0.0 0.0 0.00 0.00 0.00 65 1007.5
20260508075355 44 331 0.0 0.0 0.00 0.00 0.00 64 1007.3
20260508074853 45 331 0.0 0.0 0.00 0.00 0.00 64 1007.2
20260508074359 45 331 0.0 0.0 0.00 0.00 0.00 64 1007.1
20260508073901 45 331 0.0 1.0 0.00 0.00 0.00 64 1007.0
20260508073401 45 331 0.0 2.0 0.00 0.00 0.00 64 1006.9
20260508072845 45 331 1.0 2.0 0.00 0.00 0.00 63 1006.8
20260508072351 45 331 0.0 1.0 0.00 0.00 0.00 63 1006.8
20260508071907 45 331 0.0 3.0 0.00 0.00 0.00 62 1006.7
20260508071411 46 331 0.0 3.0 0.00 0.00 0.00 62 1006.7
20260508070854 46 331 0.0 1.0 0.00 0.00 0.00 61 1006.6
20260508070345 46 331 0.0 1.0 0.00 0.00 0.00 61 1006.6
20260508065855 46 331 0.0 2.0 0.00 0.00 0.00 61 1006.6
20260508065418 46 331 0.0 0.0 0.00 0.00 0.00 61 1006.7
20260508064858 46 331 0.0 1.0 0.00 0.00 0.00 60 1006.6
20260508064423 46 331 0.0 1.0 0.00 0.00 0.00 59 1006.7
20260508063846 47 331 0.0 3.0 0.00 0.00 0.00 59 1006.6
20260508063426 47 331 1.0 3.0 0.00 0.00 0.00 59 1006.5
20260508062920 47 331 0.0 2.0 0.00 0.00 0.00 58 1006.6
20260508062404 47 331 0.0 2.0 0.00 0.00 0.00 58 1006.6
20260508061919 47 331 0.0 1.0 0.00 0.00 0.00 57 1006.6
20260508061416 48 331 0.0 2.0 0.00 0.00 0.00 57 1006.6
20260508060858 48 331 0.0 2.0 0.00 0.00 0.00 56 1006.6
20260508060347 48 331 0.0 4.0 0.00 0.00 0.00 56 1006.7
20260508055914 48 331 1.0 4.0 0.00 0.00 0.00 55 1006.7
20260508055359 49 331 1.0 4.0 0.00 0.00 0.00 54 1006.8
20260508054859 49 331 1.0 4.0 0.00 0.00 0.00 54 1006.8
20260508054343 49 331 1.0 4.0 0.00 0.00 0.00 53 1006.8
20260508053849 49 331 1.0 4.0 0.00 0.00 0.00 53 1006.8
20260508053348 49 331 0.0 3.0 0.00 0.00 0.00 52 1006.7
20260508052852 49 331 1.0 3.0 0.00 0.00 0.00 52 1006.7
20260508052355 49 331 0.0 5.0 0.00 0.00 0.00 52 1006.7
20260508051854 49 331 1.0 5.0 0.00 0.00 0.00 52 1006.7
20260508051355 49 331 0.0 3.0 0.00 0.00 0.00 52 1006.7
20260508050850 50 331 0.0 3.0 0.00 0.00 0.00 52 1006.7
20260508050344 50 331 1.0 4.0 0.00 0.00 0.00 52 1006.8
20260508045853 50 331 0.0 7.0 0.00 0.00 0.00 52 1006.9
20260508045356 50 329 1.0 6.0 0.00 0.00 0.00 52 1007.0
20260508044853 50 331 2.0 7.0 0.00 0.00 0.00 52 1007.0
20260508044417 50 335 2.0 7.0 0.00 0.00 0.00 52 1007.0
20260508043920 50 311 1.0 5.0 0.00 0.00 0.00 52 1007.0
20260508043355 50 321 1.0 5.0 0.00 0.00 0.00 52 1007.0
20260508042856 50 321 1.0 5.0 0.00 0.00 0.00 52 1007.0
20260508042355 50 322 1.0 6.0 0.00 0.00 0.00 52 1007.0
20260508041913 50 322 1.0 6.0 0.00 0.00 0.00 52 1006.9
20260508041354 50 321 1.0 5.0 0.00 0.00 0.00 52 1006.9
20260508040855 50 321 2.0 5.0 0.00 0.00 0.00 52 1007.0
20260508040421 51 321 1.0 3.0 0.00 0.00 0.00 51 1007.0
20260508035919 51 321 1.0 4.0 0.00 0.00 0.00 51 1007.0
20260508035343 51 321 1.0 5.0 0.00 0.00 0.00 51 1007.0
20260508034844 51 318 2.0 5.0 0.00 0.00 0.00 51 1006.9
20260508034350 51 317 2.0 7.0 0.00 0.00 0.00 50 1006.9
20260508033854 51 317 3.0 7.0 0.00 0.00 0.00 50 1006.9
20260508033416 51 314 1.0 4.0 0.00 0.00 0.00 50 1007.0
20260508032921 51 314 2.0 5.0 0.00 0.00 0.00 50 1007.0
20260508032346 52 314 1.0 5.0 0.00 0.00 0.00 50 1007.0
20260508031845 52 315 1.0 5.0 0.00 0.00 0.00 50 1007.0
20260508031349 52 315 1.0 7.0 0.00 0.00 0.00 49 1007.0
20260508030915 52 315 2.0 7.0 0.00 0.00 0.00 49 1007.0
20260508030351 52 336 1.0 7.0 0.00 0.00 0.00 49 1007.0
20260508025842 52 337 1.0 7.0 0.00 0.00 0.00 49 1007.0
20260508025407 52 323 2.0 6.0 0.00 0.00 0.00 49 1007.0
20260508024905 53 323 1.0 6.0 0.00 0.00 0.00 48 1007.0
20260508024348 53 319 1.0 6.0 0.00 0.00 0.00 48 1006.9
20260508023911 53 319 2.0 6.0 0.00 0.00 0.00 48 1006.9
20260508023351 53 313 2.0 6.0 0.00 0.00 0.00 48 1006.9
20260508022856 53 309 2.0 6.0 0.00 0.00 0.00 47 1006.9
20260508022344 53 310 1.0 6.0 0.00 0.00 0.00 47 1007.0
20260508021847 54 310 2.0 5.0 0.00 0.00 0.00 46 1006.9
20260508021352 54 310 0.0 5.0 0.00 0.00 0.00 46 1006.9
20260508020856 54 314 2.0 5.0 0.00 0.00 0.00 46 1006.9
20260508020351 54 315 1.0 5.0 0.00 0.00 0.00 46 1006.9
20260508015901 54 313 2.0 5.0 0.00 0.00 0.00 45 1007.1
20260508015346 54 308 1.0 4.0 0.00 0.00 0.00 45 1007.1
20260508014851 55 306 1.0 4.0 0.00 0.00 0.00 45 1007.0
20260508014358 55 306 1.0 5.0 0.00 0.00 0.00 45 1006.9
20260508013920 55 308 1.0 5.0 0.00 0.00 0.00 45 1006.9
20260508013359 55 304 1.0 7.0 0.00 0.00 0.00 44 1006.7
20260508012843 55 302 1.0 7.0 0.00 0.00 0.00 43 1006.8
20260508012348 55 317 1.0 4.0 0.00 0.00 0.00 43 1006.6
20260508011849 55 317 2.0 4.0 0.00 0.00 0.00 43 1006.5
20260508011351 56 318 1.0 5.0 0.00 0.00 0.00 43 1006.5
20260508010857 56 321 0.0 6.0 0.00 0.00 0.00 43 1006.4
20260508010358 56 324 1.0 6.0 0.00 0.00 0.00 42 1006.3
20260508005850 56 333 2.0 7.0 0.00 0.00 0.00 42 1006.3
20260508005357 56 293 2.0 7.0 0.00 0.00 0.00 42 1006.2
20260508004844 56 316 2.0 5.0 0.00 0.00 0.00 41 1006.0
20260508004350 57 316 2.0 6.0 0.00 0.00 0.00 41 1005.9
20260508003856 57 316 1.0 6.0 0.00 0.00 0.00 40 1005.8
20260508003401 57 316 1.0 4.0 0.00 0.00 0.00 40 1005.8
20260508002846 57 316 1.0 6.0 0.00 0.00 0.00 40 1005.7
20260508002413 57 316 2.0 7.0 0.00 0.00 0.00 39 1005.6
20260508001857 58 321 2.0 7.0 0.00 0.00 0.00 39 1005.6
20260508001401 58 360 3.0 7.0 0.00 0.00 0.00 39 1005.4
20260508000847 58 338 3.0 7.0 0.00 0.00 0.00 38 1005.5
20260508000346 58 315 2.0 8.0 0.00 0.00 0.00 38 1005.5
20260507235858 59 334 3.0 8.0 0.00 0.00 0.00 38 1005.4
20260507235345 59 331 4.0 8.0 0.00 0.00 0.00 37 1005.4
20260507234850 59 313 1.0 8.0 0.00 0.00 0.00 37 1005.3
20260507234356 59 318 0.0 6.0 0.00 0.00 0.00 37 1005.2
20260507233843 60 320 2.0 8.0 0.00 0.00 0.00 36 1005.1
20260507233348 60 324 2.0 8.0 0.00 0.00 0.00 35 1005.0
20260507232854 60 319 2.0 10.0 0.00 0.00 0.00 35 1005.0
20260507232401 61 342 3.0 10.0 0.00 0.00 0.00 35 1005.1
20260507231845 61 333 3.0 10.0 0.00 0.00 0.00 34 1004.9
20260507231351 61 280 4.0 10.0 0.00 0.00 0.00 34 1004.9
20260507230841 62 288 2.0 8.0 0.00 0.00 0.00 34 1004.9
20260507230341 62 317 3.0 14.0 0.00 0.00 0.00 34 1004.9
20260507225912 62 277 5.0 14.0 0.00 0.00 0.00 33 1004.8
20260507225358 62 304 3.0 9.0 0.00 0.00 0.00 33 1004.8
20260507224920 63 338 2.0 9.0 0.00 0.00 0.00 33 1004.8
20260507224344 63 355 2.0 9.0 0.00 0.00 0.00 33 1004.7
20260507223911 63 298 3.0 9.0 0.00 0.00 0.00 33 1004.6
20260507223352 63 324 4.0 10.0 0.00 0.00 0.00 33 1004.6
20260507222859 63 314 3.0 9.0 0.00 0.00 0.00 32 1004.5
20260507222343 63 315 4.0 14.0 0.00 0.00 0.00 32 1004.5
20260507221909 63 355 5.0 14.0 0.00 0.00 0.00 32 1004.5
20260507221353 64 304 3.0 10.0 0.00 0.00 0.00 32 1004.5
20260507220859 64 327 3.0 10.0 0.00 0.00 0.00 32 1004.4
20260507220356 64 49 2.0 10.0 0.00 0.00 0.00 32 1004.4
20260507215847 64 327 4.0 10.0 0.00 0.00 0.00 31 1004.3
20260507215355 65 46 5.0 9.0 0.00 0.00 0.00 31 1004.3
20260507214921 65 277 5.0 8.0 0.00 0.00 0.00 31 1004.2
20260507214406 65 323 3.0 9.0 0.00 0.00 0.00 31 1004.2
20260507213853 65 325 4.0 9.0 0.00 0.00 0.00 32 1004.2
20260507213417 65 302 2.0 11.0 0.00 0.00 0.00 33 1004.0
20260507212843 65 290 5.0 11.0 0.00 0.00 0.00 32 1004.0
20260507212349 65 312 1.0 5.0 0.00 0.00 0.00 33 1003.9
20260507211854 65 355 1.0 12.0 0.00 0.00 0.00 33 1003.9
20260507211359 65 287 3.0 12.0 0.00 0.00 0.00 32 1004.0
20260507210845 66 321 6.0 10.0 0.00 0.00 0.00 32 1003.9
20260507210348 66 313 3.0 9.0 0.00 0.00 0.00 32 1003.9
20260507205841 66 25 4.0 12.0 0.00 0.00 0.00 32 1003.9
20260507205409 66 355 4.0 12.0 0.00 0.00 0.00 32 1003.9
20260507204852 66 350 3.0 9.0 0.00 0.00 0.00 32 1003.8
20260507204417 66 300 3.0 10.0 0.00 0.00 0.00 31 1003.9
20260507203858 66 306 3.0 10.0 0.00 0.00 0.00 32 1003.9
20260507203343 66 288 1.0 13.0 0.00 0.00 0.00 32 1003.8
20260507202850 66 9 4.0 13.0 0.00 0.00 0.00 31 1003.8
20260507202357 66 306 3.0 10.0 0.00 0.00 0.00 32 1003.9
20260507201844 66 271 2.0 10.0 0.00 0.00 0.00 31 1003.8
20260507201350 66 355 2.0 13.0 0.00 0.00 0.00 33 1003.9
20260507200857 66 298 5.0 13.0 0.00 0.00 0.00 32 1003.9
20260507200357 66 80 5.0 13.0 0.00 0.00 0.00 31 1003.9
20260507195908 66 269 3.0 11.0 0.00 0.00 0.00 31 1004.0
20260507195354 66 307 4.0 11.0 0.00 0.00 0.00 31 1004.1
20260507194858 66 327 4.0 14.0 0.00 0.00 0.00 31 1004.0
20260507194345 66 315 4.0 14.0 0.00 0.00 0.00 31 1004.2
20260507193853 66 324 2.0 10.0 0.00 0.00 0.00 33 1004.2
20260507193359 66 320 3.0 10.0 0.00 0.00 0.00 31 1004.3
20260507192845 66 296 5.0 12.0 0.00 0.00 0.00 31 1004.3
20260507192351 66 286 5.0 12.0 0.00 0.00 0.00 31 1004.4
20260507191854 67 334 1.0 7.0 0.00 0.00 0.00 31 1004.4
20260507191342 66 76 1.0 7.0 0.00 0.00 0.00 31 1004.4
20260507190847 66 309 3.0 10.0 0.00 0.00 0.00 30 1004.4
20260507190405 66 5 5.0 11.0 0.00 0.00 0.00 30 1004.4
20260507185859 66 329 4.0 13.0 0.00 0.00 0.00 29 1004.5
20260507185407 67 325 5.0 13.0 0.00 0.00 0.00 30 1004.7
20260507184851 67 13 3.0 8.0 0.00 0.00 0.00 31 1004.6
20260507184356 66 299 2.0 11.0 0.00 0.00 0.00 33 1004.6
20260507183842 66 10 4.0 12.0 0.00 0.00 0.00 33 1004.7
20260507183347 67 296 3.0 12.0 0.00 0.00 0.00 33 1004.7
20260507182853 67 300 2.0 10.0 0.00 0.00 0.00 33 1004.7
20260507182341 66 251 4.0 10.0 0.00 0.00 0.00 33 1004.7
20260507181844 66 302 2.0 12.0 0.00 0.00 0.00 32 1004.7
20260507181352 66 293 4.0 14.0 0.00 0.00 0.00 32 1004.8
20260507180842 66 310 6.0 14.0 0.00 0.00 0.00 32 1004.9
20260507180344 66 290 5.0 11.0 0.00 0.00 0.00 35 1004.9
20260507175849 66 355 2.0 8.0 0.00 0.00 0.00 36 1004.9
20260507175355 65 327 3.0 11.0 0.00 0.00 0.00 36 1004.9
20260507174842 65 333 5.0 11.0 0.00 0.00 0.00 36 1005.1
20260507174349 65 21 3.0 10.0 0.00 0.00 0.00 36 1005.0
20260507173855 65 309 3.0 10.0 0.00 0.00 0.00 38 1005.0
20260507173358 65 283 4.0 10.0 0.00 0.00 0.00 36 1005.0
20260507172900 65 323 3.0 10.0 0.00 0.00 0.00 37 1005.1
20260507172403 65 312 5.0 9.0 0.00 0.00 0.00 35 1005.2
20260507171846 65 327 4.0 8.0 0.00 0.00 0.00 36 1005.2
20260507171406 65 325 1.0 14.0 0.00 0.00 0.00 39 1005.1
20260507170913 64 336 3.0 14.0 0.00 0.00 0.00 37 1005.3
20260507170351 65 311 4.0 13.0 0.00 0.00 0.00 38 1005.3
20260507165843 65 340 2.0 13.0 0.00 0.00 0.00 40 1005.3
20260507165346 64 287 4.0 12.0 0.00 0.00 0.00 42 1005.4
20260507164850 64 289 4.0 12.0 0.00 0.00 0.00 44 1005.5
20260507164354 64 284 4.0 12.0 0.00 0.00 0.00 44 1005.4
20260507163842 64 291 3.0 10.0 0.00 0.00 0.00 45 1005.4
20260507163349 64 332 4.0 10.0 0.00 0.00 0.00 45 1005.6
20260507162915 64 283 3.0 9.0 0.00 0.00 0.00 47 1005.7
20260507162401 64 327 4.0 9.0 0.00 0.00 0.00 46 1005.6
20260507161905 64 46 1.0 11.0 0.00 0.00 0.00 47 1005.6
20260507161351 64 298 6.0 11.0 0.00 0.00 0.00 47 1005.7
20260507160858 64 284 4.0 8.0 0.00 0.00 0.00 48 1005.7
20260507160353 64 308 2.0 7.0 0.00 0.00 0.00 49 1005.9
20260507155919 64 295 1.0 8.0 0.00 0.00 0.00 51 1005.8
20260507155344 63 271 1.0 10.0 0.00 0.00 0.00 52 1005.8
20260507154849 63 281 4.0 10.0 0.00 0.00 0.00 51 1005.9
20260507154353 63 313 3.0 7.0 0.00 0.00 0.00 53 1005.9
20260507153813 61 306 3.0 9.0 0.00 0.00 0.00 58 1005.9
20260507152903 61 339 4.0 9.0 0.00 0.00 0.00 56 1006.1
20260507152350 62 319 4.0 10.0 0.00 0.00 0.00 56 1006.2
20260507151852 62 333 2.0 10.0 0.00 0.00 0.00 55 1006.2
20260507151359 62 340 2.0 9.0 0.00 0.00 0.00 58 1006.2
20260507150846 61 281 4.0 9.0 0.00 0.00 0.00 56 1006.2
20260507150347 61 312 2.0 7.0 0.00 0.00 0.00 58 1006.2
20260507145858 61 317 1.0 9.0 0.00 0.00 0.00 58 1006.2
20260507145344 61 290 3.0 9.0 0.00 0.00 0.00 58 1006.4
20260507144847 61 313 2.0 6.0 0.00 0.00 0.00 60 1006.4
20260507144414 61 313 0.0 4.0 0.00 0.00 0.00 60 1006.4
20260507143859 61 310 1.0 8.0 0.00 0.00 0.00 61 1006.5
20260507143359 60 312 2.0 12.0 0.00 0.00 0.00 61 1006.7
20260507142906 60 266 5.0 12.0 0.00 0.00 0.00 60 1006.7
20260507142350 60 302 0.0 7.0 0.00 0.00 0.00 63 1006.6
20260507141913 59 304 2.0 7.0 0.00 0.00 0.00 63 1006.7
20260507141358 59 292 2.0 7.0 0.00 0.00 0.00 62 1006.6
20260507140904 59 292 2.0 8.0 0.00 0.00 0.00 61 1006.6
20260507140414 60 340 3.0 9.0 0.00 0.00 0.00 62 1006.7
20260507135904 60 342 3.0 6.0 0.00 0.00 0.00 61 1006.7
20260507135348 60 63 1.0 4.0 0.00 0.00 0.00 64 1006.7
20260507134854 59 40 1.0 6.0 0.00 0.00 0.00 63 1006.7
20260507134400 59 46 2.0 11.0 0.00 0.00 0.00 64 1006.7
20260507133848 58 335 4.0 11.0 0.00 0.00 0.00 65 1006.6
20260507133352 58 311 2.0 9.0 0.00 0.00 0.00 68 1006.6
20260507132900 58 308 2.0 9.0 0.00 0.00 0.00 68 1006.7
20260507132346 57 338 2.0 7.0 0.00 0.00 0.00 72 1006.8
20260507131851 57 360 1.0 8.0 0.00 0.00 0.00 74 1006.8
20260507131354 56 303 4.0 8.0 0.00 0.00 0.00 76 1006.9
20260507130901 56 292 1.0 8.0 0.00 0.00 0.00 79 1007.0
20260507130422 55 312 3.0 7.0 0.00 0.00 0.00 81 1006.9
20260507125852 55 315 2.0 7.0 0.00 0.00 0.00 85 1006.8
20260507125410 54 319 2.0 6.0 0.00 0.00 0.00 87 1006.8
20260507124912 53 319 2.0 8.0 0.00 0.00 0.00 88 1007.1
20260507124357 53 300 4.0 8.0 0.00 0.00 0.00 89 1007.1
20260507123902 52 330 3.0 8.0 0.00 0.00 0.00 90 1007.1
20260507123422 52 311 3.0 8.0 0.00 0.00 0.00 91 1007.2
20260507122844 52 5 2.0 6.0 0.00 0.00 0.00 92 1007.1
20260507122350 51 317 3.0 6.0 0.00 0.00 0.00 92 1007.1
20260507121854 51 319 1.0 6.0 0.00 0.00 0.00 93 1007.0
20260507121354 50 319 3.0 6.0 0.00 0.00 0.00 92 1007.1
20260507120856 50 319 2.0 6.0 0.00 0.00 0.00 92 1007.1
20260507120354 50 319 2.0 6.0 0.00 0.00 0.00 93 1007.0
20260507115904 50 311 2.0 5.0 0.00 0.00 0.00 93 1006.9
20260507115349 50 311 1.0 5.0 0.00 0.00 0.00 93 1006.9
20260507114852 50 311 1.0 4.0 0.00 0.00 0.00 93 1007.0
20260507114355 50 311 0.0 4.0 0.00 0.00 0.00 93 1007.0
20260507113900 50 311 1.0 6.0 0.00 0.00 0.00 93 1007.1
20260507113359 50 311 2.0 6.0 0.00 0.00 0.00 93 1006.9
20260507112903 50 313 0.0 2.0 0.00 0.00 0.00 93 1006.9
20260507112424 50 313 0.0 3.0 0.00 0.00 0.00 93 1006.8